Total_Precipitation_Accumulation
0.07 0.05 0.10 0.08 0.07 0.06 0.09 0.12 0.14 0.14 0.12 0.09 0.07 0.05 0.03 0.03 0.03 0.04 0.04 0.06 0.07 0.10 0.12 0.14 0.15 0.14 0.14 0.15 0.16 0.17 0.19 0.22 0.22 0.23 0.26 0.31 0.36 0.46 0.59 0.62 0.76 0.56 0.36
0.02 0.04 0.10 0.10 0.08 0.07 0.09 0.12 0.14 0.14 0.13 0.12 0.10 0.07 0.04 0.04 0.04 0.05 0.07 0.09 0.09 0.10 0.11 0.10 0.09 0.09 0.09 0.10 0.13 0.14 0.17 0.21 0.29 0.38 0.43 0.43 0.48 0.61 0.67 0.59 0.80 0.48 0.33
0.02 0.03 0.07 0.11 0.08 0.07 0.08 0.10 0.13 0.13 0.14 0.12 0.11 0.10 0.07 0.05 0.06 0.07 0.08 0.09 0.09 0.10 0.09 0.08 0.07 0.07 0.07 0.08 0.10 0.13 0.16 0.23 0.39 0.60 0.83 0.70 0.40 0.57 0.60 0.52 0.47 0.28 0.26
0.02 0.02 0.03 0.09 0.09 0.08 0.07 0.09 0.12 0.13 0.13 0.12 0.11 0.10 0.09 0.08 0.08 0.09 0.09 0.10 0.11 0.11 0.08 0.07 0.06 0.06 0.06 0.07 0.10 0.14 0.19 0.28 0.47 0.83 1.19 0.70 0.32 0.33 0.39 0.35 0.30 0.22 0.20
0.05 0.03 0.04 0.07 0.08 0.09 0.09 0.09 0.10 0.11 0.11 0.11 0.11 0.10 0.10 0.10 0.11 0.10 0.11 0.13 0.13 0.11 0.09 0.07 0.05 0.05 0.06 0.08 0.10 0.14 0.22 0.33 0.58 0.94 0.88 0.70 0.60 0.34 0.27 0.28 0.25 0.21 0.18
0.07 0.06 0.07 0.09 0.09 0.09 0.08 0.08 0.08 0.09 0.10 0.11 0.10 0.11 0.11 0.11 0.11 0.12 0.12 0.14 0.14 0.11 0.08 0.07 0.05 0.05 0.06 0.08 0.11 0.17 0.26 0.41 0.63 0.61 0.54 0.59 0.56 0.38 0.28 0.34 0.31 0.25 0.21
0.15 0.12 0.11 0.14 0.14 0.12 0.10 0.10 0.10 0.09 0.10 0.11 0.12 0.11 0.10 0.12 0.13 0.14 0.13 0.13 0.14 0.12 0.09 0.07 0.05 0.06 0.08 0.09 0.14 0.20 0.31 0.51 0.57 0.46 0.49 0.70 0.62 0.39 0.39 0.56 0.59 0.45 0.30
0.30 0.21 0.16 0.19 0.20 0.17 0.15 0.15 0.13 0.12 0.13 0.12 0.11 0.11 0.11 0.12 0.13 0.13 0.12 0.13 0.16 0.15 0.11 0.08 0.06 0.07 0.10 0.11 0.14 0.20 0.32 0.42 0.39 0.44 0.51 0.62 0.50 0.45 0.56 0.79 0.84 0.68 0.50
0.36 0.35 0.29 0.21 0.19 0.21 0.24 0.24 0.21 0.18 0.18 0.17 0.13 0.12 0.12 0.13 0.15 0.15 0.15 0.16 0.17 0.17 0.16 0.14 0.10 0.10 0.11 0.13 0.15 0.19 0.29 0.42 0.49 0.56 0.59 0.54 0.39 0.42 0.63 0.81 0.76 0.71 0.61
0.51 0.47 0.44 0.38 0.32 0.26 0.25 0.28 0.29 0.27 0.24 0.21 0.18 0.17 0.17 0.20 0.21 0.22 0.21 0.23 0.25 0.25 0.24 0.24 0.21 0.19 0.19 0.21 0.23 0.26 0.33 0.35 0.56 0.58 0.72 0.73 0.49 0.57 0.82 0.94 0.83 0.76 0.69
0.73 0.62 0.52 0.47 0.44 0.36 0.28 0.26 0.30 0.31 0.30 0.27 0.28 0.28 0.30 0.40 0.52 0.57 0.54 0.58 0.56 0.53 0.50 0.45 0.45 0.43 0.37 0.29 0.37 0.51 0.42 0.32 0.60 0.71 0.78 0.79 0.65 0.81 1.10 1.16 1.09 0.95 0.85
0.96 0.71 0.62 0.49 0.44 0.39 0.31 0.37 0.43 0.44 0.47 0.43 0.55 0.61 0.73 0.88 0.86 0.71 0.91 1.01 0.98 1.01 0.92 0.87 1.02 0.87 0.66 0.58 0.94 1.30 0.62 0.46 0.59 0.66 0.69 0.72 0.95 1.23 1.46 1.36 1.23 1.14 1.03
1.01 1.05 0.98 0.77 0.63 0.56 0.61 0.53 0.55 0.63 0.79 0.76 0.77 0.93 1.16 1.08 0.91 0.81 0.94 1.25 1.40 1.49 1.41 1.49 1.58 1.20 1.16 1.34 1.50 1.43 0.93 0.85 0.84 0.82 0.83 1.07 1.42 1.69 1.80 1.56 1.40 1.32 1.23
1.36 1.54 1.66 1.34 1.20 1.00 0.90 0.81 0.73 0.74 0.90 1.05 1.23 1.29 1.46 1.49 1.35 1.19 1.22 1.42 1.59 1.74 2.05 2.04 1.92 1.77 1.74 1.65 1.58 1.42 1.26 1.25 1.15 1.27 1.47 1.43 1.57 1.82 1.99 1.84 1.63 1.53 1.48
1.95 2.08 2.31 1.89 1.71 1.58 1.51 1.36 1.13 1.15 1.23 1.33 1.55 1.67 1.77 1.94 1.90 1.81 1.72 1.67 1.56 1.73 2.06 2.25 2.15 2.16 2.09 1.96 1.77 1.61 1.50 1.47 1.41 1.51 1.63 1.81 1.81 1.79 1.91 2.03 1.90 1.73 1.63
2.45 2.53 2.62 2.48 2.40 2.21 2.00 1.91 1.80 1.52 1.51 1.52 1.61 1.64 1.83 2.06 2.29 2.37 2.26 2.10 1.81 1.76 1.86 2.17 2.28 2.41 2.30 2.16 1.62 1.54 1.54 1.56 1.61 1.61 1.67 2.14 2.17 1.81 1.71 1.83 1.96 1.95 1.83
3.26 3.08 3.02 2.97 3.13 2.92 2.54 2.24 1.97 1.82 1.81 1.88 1.90 1.82 1.98 2.23 2.43 2.44 2.22 1.89 1.69 1.77 1.86 1.80 1.86 2.16 1.93 1.79 1.60 1.70 1.72 1.63 1.61 1.61 1.65 1.98 2.02 1.70 1.48 1.47 1.66 1.81 1.93
3.99 3.75 3.52 3.14 3.28 3.28 3.01 2.72 2.40 2.17 2.18 2.08 1.91 1.81 1.87 2.08 2.08 2.13 1.77 1.41 1.48 1.70 1.76 1.74 1.69 1.79 1.77 1.81 1.79 1.75 1.72 1.60 1.39 1.33 1.25 1.26 1.40 1.21 1.29 1.46 1.45 1.46 1.72
4.23 4.32 4.26 4.11 3.75 3.57 3.38 3.14 2.90 2.66 2.30 1.95 1.84 1.75 1.63 1.54 1.54 1.64 1.37 1.26 1.36 1.49 1.53 1.49 1.65 1.75 1.64 1.70 1.69 1.59 1.31 1.19 1.07 0.96 0.93 0.86 0.92 0.99 1.00 1.15 1.23 1.29 1.62
4.05 4.53 4.72 4.64 4.19 3.71 3.28 2.89 2.76 2.53 2.25 1.99 1.80 1.58 1.35 1.24 1.23 1.40 1.29 1.18 1.29 1.38 1.36 1.51 1.63 1.69 1.47 1.43 1.35 1.11 0.93 0.71 0.68 0.64 0.56 0.61 0.66 0.68 0.78 0.93 1.17 1.05 1.43
3.69 4.28 4.40 4.46 3.87 3.20 2.78 2.44 2.28 2.04 1.79 1.72 1.62 1.45 1.34 1.22 1.17 1.32 1.21 1.11 1.11 1.14 1.12 1.25 1.36 1.36 1.13 1.32 1.48 1.03 0.73 0.56 0.49 0.39 0.39 0.45 0.48 0.55 0.72 0.96 1.15 1.16 1.29
3.22 3.80 3.82 3.39 2.98 2.58 2.21 2.00 1.83 1.71 1.52 1.36 1.19 1.10 1.02 0.99 1.02 1.06 1.03 0.92 0.90 0.94 0.92 0.99 1.12 1.11 0.98 1.23 1.38 1.29 0.96 0.74 0.57 0.39 0.40 0.41 0.46 0.58 0.67 0.77 1.06 1.22 1.24
2.86 2.90 2.50 2.21 2.04 1.88 1.67 1.56 1.54 1.45 1.26 1.00 0.82 0.73 0.72 0.73 0.73 0.71 0.70 0.73 0.78 0.77 0.80 0.86 1.01 1.11 0.99 1.00 1.22 1.37 1.13 0.84 0.73 0.56 0.53 0.58 0.64 0.74 0.79 0.93 1.04 1.16 1.25
2.07 1.94 1.81 1.65 1.54 1.54 1.48 1.37 1.32 1.08 0.92 0.75 0.61 0.61 0.63 0.60 0.56 0.53 0.53 0.63 0.69 0.72 0.79 0.72 0.77 0.93 0.99 0.89 0.98 1.08 1.11 1.13 1.07 0.81 0.60 0.57 0.64 0.70 0.73 0.77 0.87 1.02 1.12
1.37 1.38 1.32 1.43 1.47 1.43 1.33 1.28 1.26 1.05 0.85 0.69 0.63 0.67 0.65 0.61 0.54 0.47 0.46 0.48 0.57 0.64 0.71 0.72 0.75 0.78 0.84 0.82 0.83 0.87 0.94 1.05 1.04 0.99 0.76 0.59 0.59 0.58 0.64 0.70 0.79 0.86 0.95
0.80 0.90 0.98 1.09 1.21 1.20 1.14 1.12 1.15 1.06 0.89 0.72 0.63 0.60 0.55 0.52 0.50 0.48 0.46 0.47 0.49 0.50 0.53 0.61 0.65 0.69 0.74 0.76 0.76 0.82 0.91 0.90 0.89 1.01 0.90 0.75 0.69 0.62 0.69 0.75 0.87 0.96 0.97